HAZ3472 ZSAM-ZGGG

Flight info

Callsign HAZ3472
Flight time 1h 4m
Altitude 25600
Route NUSPA9Z NUSPA W598 DABER W155 VETIB DCT NUVGA DCT XEBUL DCT MABAG DCT OLPAB OLPAB8
Aircraft A320/M-SDE3FGHIRWY/LB1

Departure

Time 2026-05-05 10:39
Airport Xiamen Gaoqi International Airport (ZSAM)

Arrival

Time 2026-05-05 11:43
Airport Guangzhou Baiyun International Airport (ZGGG)
Time Latitude Longitude Altitude Speed Heading
2026-05-05 10:08 24.53890 118.12734 57 ft 0 kts 142°
2026-05-05 10:30 24.53897 118.12728 57 ft 2 kts 141°
2026-05-05 10:30 24.53910 118.12717 50 ft 2 kts 142°
2026-05-05 10:30 24.53923 118.12706 51 ft 2 kts 143°
2026-05-05 10:31 24.53936 118.12695 52 ft 2 kts 155°
2026-05-05 10:31 24.53952 118.12691 51 ft 2 kts 191°
2026-05-05 10:31 24.53968 118.12696 52 ft 2 kts 212°
2026-05-05 10:31 24.53981 118.12707 53 ft 2 kts 227°
2026-05-05 10:32 24.53991 118.12720 48 ft 2 kts 231°
2026-05-05 10:32 24.53995 118.12725 48 ft 0 kts 232°
2026-05-05 10:34 24.53983 118.12708 54 ft 8 kts 231°
2026-05-05 10:34 24.53945 118.12656 53 ft 8 kts 231°
2026-05-05 10:34 24.53911 118.12603 51 ft 8 kts 248°
2026-05-05 10:34 24.53933 118.12558 55 ft 7 kts 327°
2026-05-05 10:35 24.53984 118.12516 56 ft 11 kts 321°
2026-05-05 10:35 24.53983 118.12453 54 ft 9 kts 230°
2026-05-05 10:35 24.53932 118.12385 53 ft 15 kts 235°
2026-05-05 10:35 24.53872 118.12300 57 ft 13 kts 231°
2026-05-05 10:36 24.53820 118.12228 59 ft 11 kts 231°
2026-05-05 10:36 24.53776 118.12165 56 ft 11 kts 233°
2026-05-05 10:36 24.53710 118.12073 53 ft 19 kts 231°
2026-05-05 10:36 24.53627 118.11956 57 ft 20 kts 231°
2026-05-05 10:37 24.53539 118.11834 55 ft 21 kts 231°
2026-05-05 10:37 24.53446 118.11703 63 ft 22 kts 232°
2026-05-05 10:37 24.53397 118.11597 65 ft 14 kts 272°
2026-05-05 10:37 24.53424 118.11504 60 ft 12 kts 301°
2026-05-05 10:38 24.53491 118.11479 61 ft 10 kts 22°
2026-05-05 10:38 24.53521 118.11520 55 ft 0 kts 52°
2026-05-05 10:38 24.53522 118.11521 65 ft 0 kts 52°
2026-05-05 10:38 24.53602 118.11634 58 ft 56 kts 52°
2026-05-05 10:39 24.53994 118.12182 53 ft 123 kts 52°
2026-05-05 10:39 24.54621 118.13062 119 ft 167 kts 52°
2026-05-05 10:39 24.55342 118.14078 800 ft 169 kts 52°
2026-05-05 10:39 24.56070 118.15096 1558 ft 171 kts 52°
2026-05-05 10:40 24.56822 118.16156 2084 ft 186 kts 51°
2026-05-05 10:40 24.57666 118.17337 2541 ft 202 kts 52°
2026-05-05 10:40 24.58519 118.18548 3478 ft 201 kts 52°
2026-05-05 10:40 24.59381 118.19774 4235 ft 207 kts 53°
2026-05-05 10:41 24.60255 118.21072 4909 ft 216 kts 49°
2026-05-05 10:41 24.61236 118.22359 5606 ft 224 kts 51°
2026-05-05 10:41 24.62003 118.23872 6321 ft 231 kts 72°
2026-05-05 10:41 24.62158 118.25642 6985 ft 238 kts 100°
2026-05-05 10:42 24.60368 118.28516 8358 ft 236 kts 157°
2026-05-05 10:42 24.58821 118.28988 9101 ft 229 kts 185°
2026-05-05 10:42 24.57289 118.28702 9894 ft 222 kts 208°
2026-05-05 10:43 24.56039 118.27781 10622 ft 215 kts 231°
2026-05-05 10:43 24.55097 118.26516 11406 ft 213 kts 235°
2026-05-05 10:43 24.54183 118.25243 12205 ft 212 kts 235°
2026-05-05 10:43 24.53266 118.23974 12978 ft 213 kts 235°
2026-05-05 10:44 24.52340 118.22697 13747 ft 214 kts 235°
2026-05-05 10:44 24.51409 118.21420 14438 ft 215 kts 235°
2026-05-05 10:44 24.50469 118.20115 14844 ft 231 kts 235°
2026-05-05 10:44 24.49438 118.18654 15047 ft 254 kts 235°
2026-05-05 10:45 24.48310 118.17048 15222 ft 277 kts 235°
2026-05-05 10:45 24.47083 118.15304 15364 ft 300 kts 234°
2026-05-05 10:45 24.45753 118.13422 15487 ft 322 kts 234°
2026-05-05 10:45 24.44334 118.11419 15616 ft 343 kts 234°
2026-05-05 10:46 24.42839 118.09314 15911 ft 355 kts 234°
2026-05-05 10:46 24.41308 118.07166 16447 ft 359 kts 233°
2026-05-05 10:46 24.39769 118.05004 17079 ft 360 kts 233°
2026-05-05 10:46 24.38224 118.02834 17726 ft 361 kts 233°
2026-05-05 10:47 24.36673 118.00656 18205 ft 367 kts 233°
2026-05-05 10:47 24.35087 117.98428 18613 ft 372 kts 233°
2026-05-05 10:47 24.33487 117.96185 19069 ft 375 kts 233°
2026-05-05 10:47 24.31897 117.93956 19493 ft 378 kts 233°
2026-05-05 10:48 24.30276 117.91681 19963 ft 380 kts 234°
2026-05-05 10:48 24.28644 117.89391 20431 ft 382 kts 234°
2026-05-05 10:48 24.26999 117.87085 20902 ft 384 kts 234°
2026-05-05 10:48 24.25347 117.84775 21369 ft 387 kts 234°
2026-05-05 10:49 24.23506 117.82599 21810 ft 392 kts 228°
2026-05-05 10:49 24.21551 117.80505 22234 ft 395 kts 228°
2026-05-05 10:49 24.19585 117.78397 22635 ft 397 kts 228°
2026-05-05 10:49 24.17602 117.76268 23023 ft 400 kts 228°
2026-05-05 10:50 24.15609 117.74130 23360 ft 403 kts 228°
2026-05-05 10:50 24.13593 117.71969 23668 ft 407 kts 229°
2026-05-05 10:50 24.11567 117.69793 23981 ft 410 kts 229°
2026-05-05 10:50 24.09597 117.67589 24300 ft 409 kts 233°
2026-05-05 10:51 24.07977 117.65050 24630 ft 406 kts 244°
2026-05-05 10:51 24.06821 117.62242 24979 ft 405 kts 253°
2026-05-05 10:51 24.06180 117.59244 25308 ft 405 kts 263°
2026-05-05 10:51 24.06139 117.56161 25569 ft 407 kts 274°
2026-05-05 10:52 24.06497 117.53077 25636 ft 412 kts 276°
2026-05-05 10:52 24.06879 117.49943 25646 ft 417 kts 276°
2026-05-05 10:52 24.07262 117.46789 25647 ft 419 kts 276°
2026-05-05 10:52 24.07642 117.43625 25642 ft 420 kts 276°
2026-05-05 10:53 24.08017 117.40454 25642 ft 420 kts 276°
2026-05-05 10:53 24.08390 117.37284 25642 ft 420 kts 276°
2026-05-05 10:53 24.08760 117.34110 25640 ft 420 kts 275°
2026-05-05 10:53 24.09124 117.30979 25641 ft 420 kts 275°
2026-05-05 10:54 24.09494 117.27806 25640 ft 420 kts 275°
2026-05-05 10:54 24.09863 117.24636 25638 ft 420 kts 275°
2026-05-05 10:54 24.10231 117.21466 25636 ft 420 kts 275°
2026-05-05 10:54 24.10597 117.18295 25635 ft 420 kts 275°
2026-05-05 10:55 24.10963 117.15126 25634 ft 420 kts 276°
2026-05-05 10:55 24.11332 117.11955 25632 ft 420 kts 276°
2026-05-05 10:55 24.11698 117.08781 25628 ft 420 kts 276°
2026-05-05 10:55 24.12060 117.05610 25628 ft 420 kts 276°
2026-05-05 10:56 24.12423 117.02435 25629 ft 421 kts 276°
2026-05-05 10:56 24.12788 116.99259 25629 ft 421 kts 276°
2026-05-05 10:56 24.13152 116.96080 25627 ft 421 kts 275°
2026-05-05 10:56 24.13515 116.92905 25624 ft 421 kts 276°
2026-05-05 10:57 24.13874 116.89768 25625 ft 421 kts 276°
2026-05-05 10:57 24.14235 116.86592 25625 ft 420 kts 275°
2026-05-05 10:57 24.14514 116.83409 25624 ft 420 kts 273°
2026-05-05 10:57 24.14684 116.80215 25625 ft 420 kts 271°
2026-05-05 10:58 24.14786 116.77021 25624 ft 420 kts 271°
2026-05-05 10:58 24.14863 116.73830 25620 ft 419 kts 271°
2026-05-05 10:58 24.14943 116.70641 25618 ft 419 kts 271°
2026-05-05 10:58 24.15040 116.67452 25615 ft 419 kts 271°
2026-05-05 10:59 24.15156 116.64260 25615 ft 419 kts 271°
2026-05-05 10:59 24.15289 116.61069 25611 ft 419 kts 272°
2026-05-05 10:59 24.15425 116.57881 25612 ft 420 kts 272°
2026-05-05 10:59 24.15560 116.54692 25622 ft 420 kts 271°
2026-05-05 11:00 24.15647 116.52577 25630 ft 419 kts 272°
2026-05-05 11:00 24.15775 116.49392 25631 ft 419 kts 272°
2026-05-05 11:00 24.15944 116.45125 25628 ft 419 kts 272°
2026-05-05 11:00 24.16028 116.43015 25626 ft 419 kts 272°
2026-05-05 11:01 24.16274 116.38798 25620 ft 419 kts 274°
2026-05-05 11:01 24.16436 116.36653 25615 ft 419 kts 274°
2026-05-05 11:01 24.16699 116.33483 25615 ft 418 kts 274°
2026-05-05 11:01 24.17056 116.29275 25614 ft 419 kts 274°
2026-05-05 11:02 24.17315 116.26095 25615 ft 419 kts 274°
2026-05-05 11:02 24.17563 116.22917 25611 ft 419 kts 274°
2026-05-05 11:02 24.17803 116.19742 25606 ft 418 kts 274°
2026-05-05 11:02 24.17958 116.17636 25608 ft 419 kts 274°
2026-05-05 11:03 24.18189 116.14455 25607 ft 419 kts 274°
2026-05-05 11:03 24.18418 116.11275 25604 ft 419 kts 274°
2026-05-05 11:03 24.18646 116.08092 25604 ft 419 kts 274°
2026-05-05 11:03 24.18876 116.04914 25582 ft 419 kts 274°
2026-05-05 11:04 24.19110 116.01734 25585 ft 419 kts 274°
2026-05-05 11:04 24.19346 115.98548 25586 ft 420 kts 274°
2026-05-05 11:04 24.19580 115.95360 25588 ft 420 kts 274°
2026-05-05 11:04 24.19813 115.92165 25591 ft 421 kts 274°
2026-05-05 11:05 24.20043 115.88972 25591 ft 421 kts 274°
2026-05-05 11:05 24.20273 115.85770 25592 ft 422 kts 274°
2026-05-05 11:05 24.20500 115.82611 25594 ft 422 kts 274°
2026-05-05 11:05 24.20731 115.79407 25595 ft 422 kts 274°
2026-05-05 11:06 24.20960 115.76199 25593 ft 422 kts 274°
2026-05-05 11:06 24.21186 115.72990 25595 ft 423 kts 274°
2026-05-05 11:06 24.21412 115.69782 25596 ft 423 kts 274°
2026-05-05 11:06 24.21639 115.66573 25598 ft 423 kts 274°
2026-05-05 11:07 24.21868 115.63357 25595 ft 423 kts 275°
2026-05-05 11:07 24.22096 115.60146 25595 ft 423 kts 274°
2026-05-05 11:07 24.22323 115.56932 25595 ft 423 kts 274°
2026-05-05 11:07 24.22547 115.53716 25597 ft 423 kts 274°
2026-05-05 11:08 24.22772 115.50503 25594 ft 423 kts 274°
2026-05-05 11:08 24.22993 115.47327 25596 ft 424 kts 274°
2026-05-05 11:08 24.23216 115.44108 25597 ft 424 kts 274°
2026-05-05 11:08 24.23459 115.40893 25598 ft 424 kts 275°
2026-05-05 11:09 24.23733 115.37682 25597 ft 423 kts 275°
2026-05-05 11:09 24.24026 115.34470 25597 ft 423 kts 276°
2026-05-05 11:09 24.24328 115.31262 25601 ft 423 kts 276°
2026-05-05 11:09 24.24627 115.28050 25601 ft 424 kts 276°
2026-05-05 11:10 24.24917 115.24840 25598 ft 424 kts 276°
2026-05-05 11:10 24.25200 115.21622 25600 ft 424 kts 276°
2026-05-05 11:10 24.25478 115.18405 25599 ft 424 kts 276°
2026-05-05 11:10 24.25754 115.15185 25600 ft 424 kts 276°
2026-05-05 11:11 24.26027 115.12012 25601 ft 424 kts 276°
2026-05-05 11:11 24.26303 115.08793 25600 ft 424 kts 275°
2026-05-05 11:11 24.26577 115.05572 25601 ft 424 kts 275°
2026-05-05 11:11 24.26851 115.02354 25601 ft 424 kts 276°
2026-05-05 11:12 24.27126 114.99135 25579 ft 425 kts 276°
2026-05-05 11:12 24.27404 114.95911 25360 ft 424 kts 276°
2026-05-05 11:12 24.27704 114.92624 24523 ft 429 kts 276°
2026-05-05 11:12 24.27988 114.89372 24832 ft 430 kts 276°
2026-05-05 11:13 24.28262 114.86107 25065 ft 430 kts 276°
2026-05-05 11:13 24.28532 114.82841 25400 ft 430 kts 275°
2026-05-05 11:13 24.28810 114.79593 25586 ft 430 kts 276°
2026-05-05 11:13 24.29092 114.76359 25610 ft 431 kts 276°
2026-05-05 11:14 24.29380 114.73089 25622 ft 431 kts 276°
2026-05-05 11:14 24.29669 114.69822 25624 ft 430 kts 276°
2026-05-05 11:14 24.29957 114.66557 25623 ft 430 kts 276°
2026-05-05 11:14 24.30242 114.63297 25618 ft 429 kts 276°
2026-05-05 11:15 24.30525 114.60043 25622 ft 429 kts 276°
2026-05-05 11:15 24.30782 114.56782 25622 ft 430 kts 273°
2026-05-05 11:15 24.30606 114.53512 25620 ft 432 kts 263°
2026-05-05 11:15 24.29840 114.50326 25617 ft 435 kts 252°
2026-05-05 11:16 24.28501 114.47335 25507 ft 441 kts 242°
2026-05-05 11:16 24.26631 114.44646 25280 ft 447 kts 233°
2026-05-05 11:16 24.24616 114.42101 25052 ft 448 kts 233°
2026-05-05 11:16 24.22575 114.39517 24817 ft 449 kts 233°
2026-05-05 11:17 24.20531 114.36921 24590 ft 451 kts 234°
2026-05-05 11:17 24.18483 114.34309 24355 ft 453 kts 233°
2026-05-05 11:17 24.16431 114.31690 24134 ft 454 kts 233°
2026-05-05 11:17 24.14374 114.29062 23908 ft 455 kts 233°
2026-05-05 11:18 24.12310 114.26435 23691 ft 456 kts 233°
2026-05-05 11:18 24.10239 114.23805 23456 ft 457 kts 233°
2026-05-05 11:18 24.08301 114.21069 23194 ft 453 kts 240°
2026-05-05 11:18 24.06738 114.18083 22937 ft 452 kts 246°
2026-05-05 11:19 24.05301 114.15081 22676 ft 452 kts 245°
2026-05-05 11:19 24.03833 114.12042 22420 ft 451 kts 245°
2026-05-05 11:19 24.02363 114.09025 22170 ft 449 kts 245°
2026-05-05 11:19 24.00895 114.06017 21916 ft 448 kts 245°
2026-05-05 11:20 23.99432 114.03007 21669 ft 448 kts 245°
2026-05-05 11:20 23.97978 114.00006 21422 ft 446 kts 245°
2026-05-05 11:20 23.96528 113.97008 21163 ft 444 kts 245°
2026-05-05 11:20 23.95091 113.94031 20921 ft 442 kts 245°
2026-05-05 11:21 23.93659 113.91071 20679 ft 440 kts 245°
2026-05-05 11:21 23.92230 113.88124 20440 ft 438 kts 245°
2026-05-05 11:21 23.90823 113.85228 20208 ft 437 kts 245°
2026-05-05 11:21 23.89401 113.82304 19972 ft 435 kts 245°
2026-05-05 11:22 23.87979 113.79390 19735 ft 434 kts 245°
2026-05-05 11:22 23.86564 113.76491 19502 ft 432 kts 245°
2026-05-05 11:22 23.85152 113.73595 19275 ft 432 kts 245°
2026-05-05 11:22 23.83741 113.70694 19052 ft 432 kts 245°
2026-05-05 11:23 23.82331 113.67800 18819 ft 431 kts 244°
2026-05-05 11:23 23.80765 113.65006 18598 ft 433 kts 237°
2026-05-05 11:23 23.78832 113.62478 18373 ft 435 kts 229°
2026-05-05 11:23 23.76561 113.60273 18127 ft 438 kts 221°
2026-05-05 11:24 23.74023 113.58425 17857 ft 439 kts 216°
2026-05-05 11:24 23.71442 113.56683 17598 ft 435 kts 216°
2026-05-05 11:24 23.68876 113.54945 17349 ft 433 kts 216°
2026-05-05 11:24 23.66326 113.53210 17096 ft 431 kts 216°
2026-05-05 11:25 23.63823 113.51507 16849 ft 429 kts 216°
2026-05-05 11:25 23.61281 113.49812 16601 ft 429 kts 212°
2026-05-05 11:25 23.58575 113.48433 16350 ft 431 kts 205°
2026-05-05 11:25 23.55699 113.47477 16112 ft 433 kts 198°
2026-05-05 11:26 23.52780 113.46695 15877 ft 432 kts 197°
2026-05-05 11:26 23.49870 113.45914 15634 ft 430 kts 197°
2026-05-05 11:26 23.46970 113.45129 15393 ft 429 kts 198°
2026-05-05 11:26 23.44086 113.44344 15158 ft 427 kts 197°
2026-05-05 11:27 23.41208 113.43562 14919 ft 425 kts 197°
2026-05-05 11:27 23.38339 113.42783 14685 ft 424 kts 197°
2026-05-05 11:27 23.35478 113.42007 14446 ft 424 kts 197°
2026-05-05 11:27 23.32638 113.41237 14223 ft 413 kts 197°
2026-05-05 11:28 23.29903 113.40497 13994 ft 398 kts 197°
2026-05-05 11:28 23.27301 113.39796 13778 ft 384 kts 197°
2026-05-05 11:28 23.24744 113.39107 13524 ft 372 kts 197°
2026-05-05 11:28 23.22270 113.38440 13270 ft 361 kts 197°
2026-05-05 11:29 23.19868 113.37793 13019 ft 350 kts 197°
2026-05-05 11:29 23.17538 113.37163 12756 ft 340 kts 197°
2026-05-05 11:29 23.15274 113.36550 12507 ft 332 kts 197°
2026-05-05 11:29 23.13061 113.35948 12260 ft 323 kts 197°
2026-05-05 11:30 23.10907 113.35362 12013 ft 314 kts 197°
2026-05-05 11:30 23.09178 113.34896 11806 ft 298 kts 197°
2026-05-05 11:30 23.07222 113.34372 11572 ft 282 kts 197°
2026-05-05 11:30 23.05368 113.33875 11325 ft 267 kts 197°
2026-05-05 11:31 23.03608 113.33402 11087 ft 254 kts 198°
2026-05-05 11:31 23.01953 113.32956 10853 ft 242 kts 198°
2026-05-05 11:31 23.00354 113.32524 10619 ft 232 kts 198°
2026-05-05 11:31 22.98817 113.32108 10384 ft 224 kts 198°
2026-05-05 11:32 22.97319 113.31701 10156 ft 221 kts 198°
2026-05-05 11:32 22.95837 113.31298 9927 ft 219 kts 198°
2026-05-05 11:32 22.94358 113.30900 9816 ft 219 kts 198°
2026-05-05 11:32 22.92897 113.30463 9663 ft 216 kts 207°
2026-05-05 11:33 22.91738 113.29504 9546 ft 209 kts 235°
2026-05-05 11:33 22.91162 113.28081 9419 ft 208 kts 262°
2026-05-05 11:33 22.91269 113.26527 9291 ft 209 kts 283°
2026-05-05 11:33 22.91631 113.25000 9172 ft 210 kts 282°
2026-05-05 11:34 22.91983 113.23487 9047 ft 210 kts 282°
2026-05-05 11:34 22.92338 113.21955 8919 ft 209 kts 282°
2026-05-05 11:34 22.92930 113.20522 8789 ft 212 kts 308°
2026-05-05 11:34 22.94162 113.19637 8656 ft 219 kts 341°
2026-05-05 11:35 22.95701 113.19631 8372 ft 228 kts 10°
2026-05-05 11:35 22.97257 113.20046 8015 ft 234 kts 11°
2026-05-05 11:35 22.98858 113.20483 7627 ft 240 kts 12°
2026-05-05 11:35 23.00487 113.20929 7273 ft 244 kts 12°
2026-05-05 11:36 23.02142 113.21390 6914 ft 247 kts 12°
2026-05-05 11:36 23.03820 113.21847 6548 ft 251 kts 12°
2026-05-05 11:36 23.05522 113.22304 6165 ft 251 kts 12°
2026-05-05 11:36 23.07172 113.22748 5836 ft 243 kts 12°
2026-05-05 11:37 23.08786 113.23182 5521 ft 236 kts 12°
2026-05-05 11:37 23.10356 113.23604 5223 ft 229 kts 12°
2026-05-05 11:37 23.11877 113.24013 4930 ft 222 kts 12°
2026-05-05 11:37 23.13360 113.24412 4655 ft 217 kts 12°
2026-05-05 11:38 23.14810 113.24802 4372 ft 212 kts 12°
2026-05-05 11:38 23.16203 113.25177 4118 ft 203 kts 12°
2026-05-05 11:38 23.17564 113.25543 3841 ft 200 kts 13°
2026-05-05 11:38 23.18910 113.25905 3582 ft 198 kts 13°
2026-05-05 11:39 23.20245 113.26265 3323 ft 198 kts 13°
2026-05-05 11:39 23.21579 113.26624 3070 ft 196 kts 13°
2026-05-05 11:39 23.22900 113.26980 2811 ft 195 kts 14°
2026-05-05 11:39 23.24212 113.27333 2559 ft 194 kts 14°
2026-05-05 11:40 23.25503 113.27681 2302 ft 186 kts 15°
2026-05-05 11:40 23.26720 113.28009 2061 ft 175 kts 15°
2026-05-05 11:40 23.27860 113.28316 1846 ft 163 kts 16°
2026-05-05 11:40 23.28898 113.28595 1647 ft 151 kts 17°
2026-05-05 11:41 23.29895 113.28864 1443 ft 145 kts 17°
2026-05-05 11:41 23.30868 113.29127 1258 ft 143 kts 16°
2026-05-05 11:41 23.31828 113.29387 1069 ft 141 kts 16°
2026-05-05 11:41 23.32778 113.29643 905 ft 140 kts 15°
2026-05-05 11:42 23.33715 113.29896 729 ft 138 kts 15°
2026-05-05 11:42 23.34643 113.30146 545 ft 138 kts 16°
2026-05-05 11:42 23.35571 113.30397 384 ft 137 kts 15°
2026-05-05 11:42 23.36494 113.30645 203 ft 137 kts 15°
2026-05-05 11:43 23.37415 113.30892 63 ft 133 kts 15°
2026-05-05 11:43 23.38172 113.31098 55 ft 87 kts 14°
2026-05-05 11:43 23.38586 113.31208 54 ft 26 kts 11°
2026-05-05 11:43 23.38726 113.31191 58 ft 21 kts 345°
2026-05-05 11:44 23.38863 113.31153 54 ft 18 kts 346°
2026-05-05 11:44 23.38985 113.31127 54 ft 16 kts 359°
2026-05-05 11:44 23.39082 113.31139 58 ft 11 kts 353°
2026-05-05 11:44 23.39122 113.31067 58 ft 17 kts 282°
2026-05-05 11:45 23.39157 113.30913 58 ft 23 kts 283°
2026-05-05 11:45 23.39192 113.30792 57 ft 14 kts 311°
2026-05-05 11:45 23.39280 113.30795 52 ft 13 kts 15°
2026-05-05 11:45 23.39362 113.30817 55 ft 11 kts 14°
2026-05-05 11:46 23.39436 113.30837 55 ft 10 kts 14°
2026-05-05 11:46 23.39498 113.30794 52 ft 14 kts 284°
2026-05-05 11:46 23.39519 113.30699 58 ft 12 kts 279°
2026-05-05 11:46 23.39471 113.30645 58 ft 10 kts 191°
2026-05-05 11:47 23.39386 113.30623 55 ft 17 kts 194°
2026-05-05 11:47 23.39246 113.30585 52 ft 23 kts 194°
2026-05-05 11:47 23.39083 113.30541 55 ft 25 kts 193°
2026-05-05 11:47 23.38924 113.30498 57 ft 16 kts 194°
2026-05-05 11:48 23.38910 113.30352 52 ft 11 kts 299°
2026-05-05 11:48 23.38942 113.30283 53 ft 6 kts 297°
2026-05-05 11:48 23.38951 113.30242 52 ft 5 kts 252°
2026-05-05 11:49 23.38926 113.30226 55 ft 4 kts 206°
2026-05-05 11:49 23.38902 113.30212 52 ft 5 kts 208°
2026-05-05 11:49 23.38884 113.30202 58 ft 0 kts 208°